COSMOS 2251 DEB, 34883

Orbit data source: Space-Track

COSMOS 2251 DEB, 34883 is space debris in LEO originally from a launch on Wed, 16 Jun 1993 UTC launched from the Plesetsk Missile And Space Complex (PKMTR). The debris from Iridium 33, an American commercial communications satellite, has been tracked extensively since its accidental collision with the defunct Russian satellite Cosmos 2251 in 2009. This event, occurring at high speed in low Earth orbit (LEO), generated thousands of pieces of space debris, significantly increasing the risk of further collisions. The Iridium 33 debris cloud has impacted space traffic management and orbital debris mitigation strategies, making it a subject of ongoing study in space situational awareness.

Loading next visibility...
Identifier
34883, 1993-036ACW
Orbit
LEO
Country
Flag of CISCIS
Related business
Manufacturer
Unknown
Mission
Spacecraft
Bus & Motor
Unknown
Mass
Unknown
Launch date (UTC)
1993-06-16 (33 years ago)
Launch vehicle
Unknown
Launch site
Plesetsk Missile And Space Complex (PKMTR)
Object type
Payload
Rocket body
Debris
Shape & HBR
Unknown shape, 0.1 m
Radar Cross Section
Small (<0.1 m²)

Expand to show TLE details & history
Last TLE update: 3 days ago

TLE from 3 days ago
0 COSMOS 2251 DEB
1 34883U 93036ACW 25352.56050011  .00012297  00000-0  28916-2 0  9991
2 34883  74.2022  51.8680 0095103 236.3156 122.8912 14.51672805865246
Epoch: 2025-12-18T13:27Z
TLE epoch observation values (Epoch: 2025-12-18T13:27:07.209Z)
Latitude
-0.00002°
Longitude
122.67371°
Altitude
759.945 km
Speed
7.455 km/s
True Right ascension
03h 27m 28s
True Declination
0° 00' 00"
Sunlit
Object was in full shadow at epoch
Visualization orbit readout
Latitude
Unknown
Longitude
Unknown
Altitude
Unknown
Speed
Unknown
Apparent Right ascension
Unknown
Apparent Declination
Unknown
Sunlit
N/A
Visualization observer readout
Local Sidereal Time
07:46:02
Azimuth
Unknown
Elevation
Unknown
Doppler factor
Unknown
Orbital elements
Apogee altitude
785.267 km
Perigee altitude
650.298 km
Semi-major axis
7,095.919 km
Eccentricity
0.00951
Inclination
74.2022°
RAAN
51.868°
Arg. of periapsis
236.3156°
True anomaly
123.8004°
Mean anomaly
122.8912°
Eccentric anomaly
123.34639°
Mean motion
3.63103 °/min
Orbital period
99.15 mins
BSTAR
0.0028916
Loading maneuver chart data...
Computing Atmospheric mass density...

Documentation

Showing up to 5 results
|